Bend, OR

8:53 AM PDT on August 17, 2019 (GMT -0700)
Bend Municipal

Weather History for KBDN - June, 2019

Change the Weather History Date:

Wednesday, June 12, 2019

  Actual Average (KRDM) Record (KRDM)
Temperature  
Mean Temperature 73 °F -  
Max Temperature 89 °F 72 °F 93 °F (1974)
Min Temperature 57 °F 38 °F 28 °F (2008)
Cooling Degree Days 8    
Growing Degree Days 23 (Base 50)    
Moisture  
Dew Point 51 °F    
Average Humidity 51    
Maximum Humidity 78    
Minimum Humidity 24    
Precipitation  
Precipitation 0.03 in - - ()
Sea Level Pressure  
Sea Level Pressure 30.07 in    
Wind  
Wind Speed 4 mph (WSW)    
Max Wind Speed 14 mph    
Max Gust Speed 21 mph    
Visibility 10 miles    
Events Rain , Thunderstorm    
Averages and records for this station are not official NWS values.
T = Trace of Precipitation, MM = Missing Value Source: NWS Daily Summary

Daily Weather History Graph

Daily Weather History Graph

Search for Another Location

Airport or City:

Astronomy

Jun. 12, 2019 Rise Set
Actual Time 5:21 AM PDT 8:48 PM PDT
Civil Twilight 4:44 AM PDT 9:24 PM PDT
Nautical Twilight 3:57 AM PDT 10:12 PM PDT
Astronomical Twilight 2:57 AM PDT 11:12 PM PDT
Moon 3:50 PM PDT (6/12) 2:50 AM PDT (6/12)
Length of Visible Light 16h 39m
Length of Day
15h 27m
Waxing Gibbous, 77% of the Moon is Illuminated
Jun 12
Waxing Gibbous
Jun 17
Full
Jun 25
Last Quarter
Jul 2
New
Jul 9
First Quarter

Hourly Weather History & Observations

Time (PDT) Temp. Dew Point Humidity Pressure Visibility Wind Dir Wind Speed Gust Speed Precip Events Conditions
12:15 AM 68.0 °F 44.6 °F 43% 30.18 in 10.0 mi WNW 6.9 mph - N/A   Clear
12:35 AM 68.0 °F 44.6 °F 43% 30.18 in 10.0 mi WNW 8.1 mph - N/A   Clear
12:55 AM 66.2 °F 44.6 °F 46% 30.18 in 10.0 mi West 6.9 mph - N/A   Clear
1:15 AM 66.2 °F 44.6 °F 46% 30.18 in 10.0 mi West 3.5 mph - N/A   Clear
1:35 AM 66.2 °F 46.4 °F 49% 30.17 in 10.0 mi Calm Calm - N/A   Clear
1:55 AM 64.4 °F 46.4 °F 52% 30.17 in 10.0 mi West 4.6 mph - N/A   Clear
2:15 AM 62.6 °F 46.4 °F 55% 30.17 in 10.0 mi West 4.6 mph - N/A   Clear
2:35 AM 62.6 °F 46.4 °F 55% 30.16 in 10.0 mi Calm Calm - N/A   Clear
2:55 AM 60.8 °F 46.4 °F 59% 30.16 in 10.0 mi West 3.5 mph - N/A   Clear
3:15 AM 62.6 °F 46.4 °F 55% 30.16 in 10.0 mi SW 3.5 mph - N/A   Clear
3:35 AM 60.8 °F 46.4 °F 59% 30.15 in 10.0 mi Calm Calm - N/A   Clear
3:55 AM 59.0 °F 46.4 °F 63% 30.15 in 10.0 mi Calm Calm - N/A   Clear
4:15 AM 59.0 °F 46.4 °F 63% 30.14 in 10.0 mi SSW 3.5 mph - N/A   Clear
4:35 AM 57.2 °F 48.2 °F 72% 30.15 in 10.0 mi South 3.5 mph - N/A   Clear
4:55 AM 59.0 °F 46.4 °F 63% 30.14 in 10.0 mi SSW 6.9 mph - N/A   Clear
5:15 AM 59.0 °F 46.4 °F 63% 30.14 in 10.0 mi SSW 4.6 mph - N/A   Clear
5:35 AM 57.2 °F 46.4 °F 67% 30.14 in 10.0 mi SSW 3.5 mph - N/A   Clear
5:55 AM 57.2 °F 46.4 °F 67% 30.14 in 10.0 mi SSW 4.6 mph - N/A   Clear
6:15 AM 57.2 °F 46.4 °F 67% 30.14 in 10.0 mi Calm Calm - N/A   Clear
6:35 AM 59.0 °F 48.2 °F 67% 30.14 in 10.0 mi SSW 4.6 mph - N/A   Clear
6:55 AM 62.6 °F 48.2 °F 59% 30.14 in 10.0 mi South 3.5 mph - N/A   Clear
7:15 AM 64.4 °F 50.0 °F 59% 30.14 in 10.0 mi Calm Calm - N/A   Clear
7:35 AM 66.2 °F 50.0 °F 56% 30.14 in 10.0 mi Calm Calm - N/A   Clear
7:55 AM 69.8 °F 48.2 °F 46% 30.14 in 10.0 mi Calm Calm - N/A   Clear
8:15 AM 71.6 °F 46.4 °F 41% 30.13 in 10.0 mi Calm Calm - N/A   Clear
8:35 AM 73.4 °F 46.4 °F 38% 30.13 in 10.0 mi Calm Calm - N/A   Clear
8:55 AM 73.4 °F 46.4 °F 38% 30.12 in 10.0 mi Calm Calm - N/A   Clear
9:15 AM 75.2 °F 46.4 °F 36% 30.12 in 10.0 mi Variable 4.6 mph - N/A   Clear
9:35 AM 77.0 °F 46.4 °F 34% 30.11 in 10.0 mi NE 4.6 mph - N/A   Clear
9:55 AM 77.0 °F 46.4 °F 34% 30.11 in 10.0 mi Calm Calm - N/A   Clear
10:15 AM 78.8 °F 46.4 °F 32% 30.10 in 10.0 mi Variable 4.6 mph - N/A   Clear
10:35 AM 78.8 °F 46.4 °F 32% 30.10 in 10.0 mi NW 5.8 mph - N/A   Clear
10:55 AM 78.8 °F 46.4 °F 32% 30.09 in 10.0 mi Variable 4.6 mph - N/A   Clear
11:15 AM 80.6 °F 48.2 °F 32% 30.09 in 10.0 mi Variable 6.9 mph - N/A   Clear
11:35 AM 80.6 °F 48.2 °F 32% 30.08 in 10.0 mi Calm Calm - N/A   Clear
11:55 AM 82.4 °F 48.2 °F 30% 30.08 in - Calm Calm - N/A   Clear
12:15 PM 82.4 °F 48.2 °F 30% 30.07 in 10.0 mi NNE 4.6 mph - N/A   Clear
12:35 PM 84.2 °F 48.2 °F 29% 30.06 in 10.0 mi Variable 4.6 mph - N/A   Clear
12:55 PM 84.2 °F 48.2 °F 29% 30.05 in 10.0 mi Calm Calm - N/A   Clear
1:15 PM 86.0 °F 48.2 °F 27% 30.04 in 10.0 mi North 3.5 mph 11.5 mph N/A   Clear
1:35 PM 87.8 °F 48.2 °F 25% 30.03 in 10.0 mi North 6.9 mph - N/A   Clear
1:55 PM 89.6 °F 48.2 °F 24% 30.02 in 10.0 mi NNW 6.9 mph 17.3 mph N/A   Clear
2:15 PM 89.6 °F 48.2 °F 24% 30.01 in 10.0 mi North 12.7 mph - N/A Thunderstorm Partly Cloudy
2:35 PM 86.0 °F 48.2 °F 27% 30.02 in 10.0 mi NNW 10.4 mph - N/A   Clear
2:55 PM 82.4 °F 50.0 °F 32% 30.02 in 10.0 mi NNW 8.1 mph - N/A   Clear
3:15 PM 73.4 °F 60.8 °F 65% 30.01 in 4.0 mi NNW 8.1 mph - N/A Rain , Thunderstorm Light Thunderstorms and Rain
3:35 PM 75.2 °F 60.8 °F 61% 30.03 in 10.0 mi South 8.1 mph - N/A Thunderstorm Thunderstorm
3:55 PM 75.2 °F 57.2 °F 53% 30.01 in 10.0 mi North 6.9 mph - 0.03 in Thunderstorm Clear
4:15 PM 77.0 °F 55.4 °F 47% 30.02 in 10.0 mi SSE 13.8 mph 20.7 mph N/A   Partly Cloudy
4:35 PM 77.0 °F 51.8 °F 41% 30.00 in 10.0 mi SW 6.9 mph 15.0 mph N/A   Partly Cloudy
4:55 PM 73.4 °F 57.2 °F 57% 29.99 in 10.0 mi SSE 9.2 mph - N/A Thunderstorm Clear
5:15 PM 73.4 °F 55.4 °F 53% 29.98 in 6.0 mi South 6.9 mph - N/A Thunderstorm Haze
5:35 PM 75.2 °F 55.4 °F 50% 29.98 in 10.0 mi NW 5.8 mph - N/A   Clear
5:55 PM 77.0 °F 55.4 °F 47% 29.98 in 10.0 mi West 4.6 mph - N/A Thunderstorm Clear
6:15 PM 77.0 °F 57.2 °F 50% 29.98 in 10.0 mi WSW 4.6 mph - N/A   Clear
6:35 PM 75.2 °F 59.0 °F 57% 29.98 in 10.0 mi SSE 5.8 mph - N/A   Clear
6:55 PM 75.2 °F 59.0 °F 57% 29.98 in 10.0 mi SSW 4.6 mph - N/A   Clear
7:15 PM 75.2 °F 59.0 °F 57% 29.99 in 10.0 mi SSW 5.8 mph - N/A   Clear
7:35 PM 73.4 °F 59.0 °F 61% 29.99 in 10.0 mi SW 4.6 mph - N/A   Clear
7:55 PM 73.4 °F 59.0 °F 61% 29.98 in 10.0 mi Calm Calm - N/A   Clear
8:15 PM 75.2 °F 59.0 °F 57% 29.99 in 10.0 mi Calm Calm - N/A   Clear
8:35 PM 73.4 °F 59.0 °F 61% 29.99 in 10.0 mi Calm Calm - N/A   Scattered Clouds
8:55 PM 71.6 °F 60.8 °F 69% 29.99 in 10.0 mi SSE 3.5 mph - N/A   Partly Cloudy
9:15 PM 71.6 °F 60.8 °F 69% 30.00 in 10.0 mi Calm Calm - N/A   Clear
9:35 PM 69.8 °F 60.8 °F 73% 30.00 in 10.0 mi SSE 4.6 mph - N/A   Partly Cloudy
9:55 PM 69.8 °F 59.0 °F 68% 30.01 in 10.0 mi Calm Calm - N/A   Clear
10:15 PM 68.0 °F 59.0 °F 73% 30.01 in 10.0 mi Calm Calm - N/A   Clear
10:35 PM 66.2 °F 59.0 °F 78% 30.01 in 10.0 mi SW 3.5 mph - N/A   Clear
10:55 PM 66.2 °F 55.4 °F 68% 30.02 in 10.0 mi South 4.6 mph - N/A   Clear
11:15 PM 66.2 °F 55.4 °F 68% 30.02 in 10.0 mi Calm Calm - N/A   Clear
11:35 PM 66.2 °F 53.6 °F 64% 30.02 in 10.0 mi SW 4.6 mph - N/A   Clear
11:55 PM 66.2 °F 51.8 °F 60% 30.01 in - SSW 8.1 mph - N/A   Clear